Location: Shepherdstown, WV
(39.4326°N, 77.8042°W)
Time: 15:37:02
(UTC-04:00)

Tiros 1 despin weight - Pass Details

Date: 02 August 2021
Orbit: 593 x 641 km, 48.2° (Epoch: 18 September)

Event Time Altitude Azimuth Distance (km) Brightness Sun altitude
Rises 11:58:09 0° 186° (S) 2,894 ? 62.2°
Reaches altitude 10° 12:01:28 10° 161° (SSE) 2,002 ? 62.6°
Maximum altitude 12:03:49 14° 130° (SE) 1,765 ? 62.9°
Drops below altitude 10° 12:06:11 10° 100° (E) 2,019 ? 63.2°
Sets 12:09:33 0° 75° (ENE) 2,937 ? 63.6°
